sat.trackr.live / text

‹ back to catalog

STARLINK-4343

NORAD 53050 · 2022-077H

PAYLOAD ACTIVE UNKNOWN

§ Identity

Operator
Country
US
Launch date
2022-07-11
Launch site
AFWTR
Launch vehicle
Mass (kg)
RCS (m²)

Purposes: comms

External: N2YO · Heavens-Above · Gunter

§ Orbital elements

Epoch: 2026-05-24T23:13:37.291008Z

Period
95.64 min
Inclination
97.4488°
Eccentricity
0.0001826
Mean motion
15.05653255 rev/d
Perigee alt
548.2 km
Apogee alt
550.8 km
Semi-major
6,927.6 km
B*
-5.6397e-5
RAAN
325.9984°
Arg perigee
82.7455°
Mean anomaly
277.3980°
Rev number
21,245

§ Raw data

STARLINK-43431 53050U 22077H   26144.96779272 -.00000872  00000+0 -56397-4 0  99992 53050  97.4488 325.9984 0001826  82.7455 277.3980 15.05653255212450

JSON: /api/v1/satellites/53050 · /tle

For live sub-satellite position, see the globe view (requires WebGL).

§ Visibility from observer

Set your observer location to see the next 7 days of passes ≥ 10°. The values pass through the URL so the page stays shareable.

No JS? Fill the form by hand. The geolocation button needs JavaScript.